[[{"header":{"parameterUnit":"m.s-1","parameterCategory":1,"la1":30.2991,"la2":30.254,"lo1":-89.0895,"lo2":-89.0444,"dy":0.0017,"dx":0.0017,"nx":28,"ny":28,"refTime":"2024-05-01T03:00:00:Z","depth":0,"parameterNumber":2,"parameterNumberName":"U-component_of_WINDS"},"data":[0,0,0,0,0,0,0,0,0,0,0,0,0,0,0,0,0,0,0,0,0,0,0,0,0,0,0,0,0,0,0,0,0,0,0,0,0,0,0,0,0,0,0,0,0,0,0,0,0,0,0,0,0,0,0,0,0,0,-2.3362,-2.3362,0,-2.3336,-2.3336,-2.3336,-2.3271,-2.3269,-2.3268,-2.3267,-2.3242,-2.3243,-2.3244,0,0,0,0,0,0,0,0,0,0,0,0,0,-2.3356,-2.3357,-2.3362,-2.3361,-2.3361,-2.3336,-2.3336,-2.3336,-2.3271,-2.3269,-2.3268,-2.3266,-2.3242,-2.3243,-2.3244,0,0,0,0,0,0,0,0,0,0,0,0,0,-2.3348,-2.3357,-2.3362,-2.3326,-2.3322,-2.3337,-2.3336,-2.3336,-2.3271,-2.3269,-2.3267,-2.3265,-2.3242,-2.3243,-2.3244,-2.3291,0,0,-2.3247,-2.3247,0,0,0,0,0,0,0,0,-2.3348,-2.3348,-2.3331,-2.3328,-2.3324,-2.3305,-2.3325,-2.3321,-2.3272,-2.3291,-2.3267,-2.3264,-2.3265,-2.3264,-2.3264,-2.329,-2.3289,-2.3247,-2.3247,-2.3248,-2.3248,0,0,0,0,0,0,0,-2.3349,-2.3349,-2.3352,-2.3331,-2.3327,-2.3312,-2.3308,-2.3324,-2.329,-2.3289,-2.3284,-2.3282,-2.3263,-2.3263,-2.3263,-2.3289,-2.3247,-2.3248,-2.3248,-2.3249,-2.3354,-2.3356,0,0,0,0,0,0,-2.3355,-2.335,-2.3353,-2.3351,-2.3331,-2.3313,-2.3309,-2.3313,-2.3289,-2.3284,-2.3284,-2.3279,-2.3262,-2.3262,-2.3262,-2.3315,-2.3248,-2.3249,-2.3249,-2.3352,-2.3354,-2.3357,0,0,0,0,0,0,-2.3355,-2.3355,-2.3354,-2.3349,-2.3348,-2.3316,-2.332,-2.3314,-2.3314,-2.3285,-2.3279,-2.329,-2.3261,-2.326,-2.3284,-2.3314,-2.3249,-2.325,-2.3349,-2.3353,-2.3356,-2.3424,0,0,0,0,0,0,-2.3355,-2.3356,-2.3373,-2.335,-2.3348,-2.3376,-2.3322,-2.3315,-2.3315,-2.3309,-2.329,-2.3285,-2.3259,-2.3283,-2.3285,-2.3314,-2.3251,-2.3346,-2.3351,-2.3355,-2.3419,-2.3429,-2.3438,0,0,0,0,0,-2.3355,-2.3393,-2.3374,-2.3375,-2.3369,-2.3378,-2.3377,-2.3346,-2.3318,-2.3335,-2.3317,-2.3285,-2.3311,-2.3286,-2.3288,-2.3317,-2.3344,-2.3349,-2.3354,-2.3414,-2.3427,-2.3438,0,0,0,0,0,0,-2.3421,-2.339,-2.3368,-2.34,-2.3392,-2.3367,-2.3388,-2.336,-2.3361,-2.3355,-2.3317,-2.3313,-2.3343,-2.3333,-2.3306,-2.3362,-2.3322,-2.3328,-2.3367,-2.3379,-2.3389,-2.339,-2.3252,0,0,0,0,0,-2.3439,-2.3449,-2.3421,-2.3452,-2.345,-2.342,-2.3423,-2.34,-2.339,-2.3387,-2.337,-2.3363,-2.3369,-2.3374,-2.3378,-2.3418,-2.3413,-2.3439,-2.3448,-2.3456,-2.3461,-2.3481,-2.3493,-2.3373,-2.3373,-2.3373,0,0,-2.3477,-2.3461,-2.3469,-2.3465,-2.3456,-2.3468,-2.3417,-2.3431,-2.3439,-2.3389,-2.341,-2.3399,-2.3388,-2.342,-2.3434,-2.3413,-2.3493,-2.3463,-2.3469,-2.347,-2.3488,-2.3499,-2.3509,-2.3377,-2.3376,-2.3375,0,0,-2.3551,-2.354,-2.3565,-2.3557,-2.3545,-2.3525,-2.3531,-2.351,-2.35,-2.3521,-2.3484,-2.3494,-2.3505,-2.3499,-2.3498,-2.3572,-2.3542,-2.3575,-2.3624,-2.3644,-2.3653,-2.3661,-2.3687,-2.3697,-2.358,-2.358,-2.358,0,-2.3599,-2.3614,-2.3581,-2.3598,-2.3597,-2.3552,-2.3577,-2.3572,-2.3562,-2.3562,-2.3539,-2.3553,-2.3543,-2.3573,-2.3591,-2.3592,-2.3598,-2.3575,-2.3655,-2.3662,-2.3669,-2.3694,-2.3703,-2.3584,-2.3583,-2.3583,-2.3583,0,-2.3674,-2.3686,-2.3707,-2.3698,-2.37,-2.3721,-2.3692,-2.3698,-2.3676,-2.3659,-2.3681,-2.3668,-2.3668,-2.3674,-2.3653,-2.3702,-2.3689,-2.3661,-2.362,-2.3685,-2.3707,-2.3716,-2.3589,-2.3588,-2.3587,-2.3586,0,0,-2.3787,-2.376,-2.3769,-2.3764,-2.3748,-2.3756,-2.3776,-2.3776,-2.3782,-2.3778,-2.3793,-2.3804,-2.3778,-2.3777,-2.3755,-2.3773,-2.3832,-2.3742,-2.3741,-2.3758,-2.3885,-2.3905,-2.3916,-2.3813,-2.3815,-2.3816,-2.3885,0,-2.3856,-2.3886,-2.3858,-2.3894,-2.3904,-2.3863,-2.388,-2.3872,-2.3858,-2.3865,-2.3849,-2.3857,-2.3823,-2.3821,-2.3838,-2.3821,-2.3856,-2.3816,-2.3827,-2.3827,-2.3829,-2.3928,-2.3949,-2.4015,-2.3894,-2.3895,-2.3896,0,-2.394,-2.3939,-2.3976,-2.3958,-2.3961,-2.3977,-2.3975,-2.3982,-2.3973,-2.3961,-2.3961,-2.3934,-2.3952,-2.3913,-2.3939,-2.3912,-2.3915,-2.3908,-2.391,-2.3908,-2.3865,-2.3928,-2.4035,-2.4044,-2.391,-2.3909,-2.3908,0,-2.4017,-2.4025,-2.4048,-2.4046,-2.4026,-2.4038,-2.403,-2.4019,-2.4021,-2.4021,-2.4022,-2.4024,-2.4025,-2.4027,-2.4001,-2.3976,-2.403,-2.3989,-2.4021,-2.4021,-2.4032,-2.4032,-2.414,-2.4037,-2.4037,-2.4037,-2.4037,0,-2.4096,-2.412,-2.4083,-2.4097,-2.4123,-2.4091,-2.4119,-2.4107,-2.4098,-2.4109,-2.4075,-2.4086,-2.4053,-2.4061,-2.4042,-2.4066,-2.4067,-2.4058,-2.4052,-2.406,-2.4061,-2.406,-2.4054,-2.4039,-2.4039,-2.4038,-2.4038,0,-2.4186,-2.4162,-2.4184,-2.4164,-2.4159,-2.418,-2.4162,-2.4175,-2.4159,-2.4174,-2.4176,-2.415,-2.4159,-2.4134,-2.4139,-2.4126,-2.416,-2.4148,-2.4163,-2.4158,-2.4191,-2.4188,-2.4302,-2.4315,-2.4205,-2.4206,-2.4207,0,-2.4237,-2.4255,-2.4236,-2.4241,-2.4235,-2.4244,-2.4247,-2.4217,-2.4221,-2.4213,-2.4227,-2.4232,-2.4235,-2.4251,-2.4233,-2.4237,-2.4223,-2.4263,-2.4223,-2.4231,-2.4222,-2.4221,-2.4223,-2.4271,-2.4272,-2.4273,-2.4274,0,-2.433,-2.4318,-2.4322,-2.4323,-2.4326,-2.4325,-2.4322,-2.4329,-2.4297,-2.4303,-2.4311,-2.4314,-2.4319,-2.4325,-2.4325,-2.4318,-2.4291,-2.4287,-2.4294,-2.4302,-2.4309,-2.4305,-2.4184,-2.4284,-2.4283,-2.4282,-2.4282,-2.4281,-2.4401,-2.4415,-2.4404,-2.4411,-2.4405,-2.4403,-2.4414,-2.44,-2.4406,-2.4407,-2.439,-2.4401,-2.4393,-2.439,-2.4386,-2.4396,-2.4377,-2.4388,-2.4391,-2.4393,-2.4398,-2.4309,-2.4396,-2.4395,-2.4395,-2.4395,-2.4395,0,-2.4492,-2.4483,-2.4489,-2.4486,-2.4491,-2.4466,-2.4461,-2.4468,-2.4478,-2.4473,-2.4476,-2.4486,-2.4492,-2.4476,-2.4479,-2.449,-2.4478,-2.4492,-2.449,-2.4489,-2.4415,-2.4408,-2.4502,-2.4502,-2.4502,-2.4502,-2.4502,-2.4502,-2.4539,-2.4561,-2.4548,-2.4567,-2.4559,-2.4569,-2.4569,-2.4567,-2.4563,-2.4575,-2.458,-2.4569,-2.4559,-2.4562,-2.4567,-2.4562,-2.4565,-2.4583,-2.4574,-2.4505,-2.4494,-2.4484,-2.4477,-2.4584,-2.4584,-2.4647,-2.4647,-2.4648]},{"header":{"parameterUnit":"m.s-1","parameterCategory":1,"la1":30.2991,"la2":30.254,"lo1":-89.0895,"lo2":-89.0444,"dy":0.0017,"dx":0.0017,"nx":28,"ny":28,"refTime":"2024-05-01T03:00:00:Z","depth":0,"parameterNumber":3,"parameterNumberName":"V-component_of_WINDS"},"data":[0,0,0,0,0,0,0,0,0,0,0,0,0,0,0,0,0,0,0,0,0,0,0,0,0,0,0,0,0,0,0,0,0,0,0,0,0,0,0,0,0,0,0,0,0,0,0,0,0,0,0,0,0,0,0,0,0,0,3.0225,3.0226,0,3.0273,3.0273,3.0274,3.0279,3.0279,3.0278,3.0278,3.0323,3.0325,3.0326,0,0,0,0,0,0,0,0,0,0,0,0,0,3.0136,3.0137,3.0225,3.0226,3.0226,3.0273,3.0273,3.0274,3.0279,3.0279,3.0278,3.0278,3.0322,3.0324,3.0326,0,0,0,0,0,0,0,0,0,0,0,0,0,3.0178,3.0138,3.0225,3.0235,3.0236,3.0273,3.0274,3.0274,3.0279,3.0279,3.0278,3.0277,3.0322,3.0324,3.0327,3.0356,0,0,3.0334,3.0335,0,0,0,0,0,0,0,0,3.0176,3.0181,3.0233,3.0234,3.0236,3.0269,3.0259,3.0302,3.028,3.0263,3.0278,3.0277,3.0305,3.0309,3.032,3.0358,3.036,3.0334,3.0336,3.0337,3.0338,0,0,0,0,0,0,0,3.0173,3.0179,3.0244,3.0233,3.0235,3.0236,3.0241,3.0267,3.0287,3.0264,3.0265,3.027,3.0306,3.0317,3.0321,3.0361,3.0334,3.0337,3.0338,3.0339,3.0427,3.0428,0,0,0,0,0,0,3.0168,3.0177,3.0242,3.0245,3.0203,3.0238,3.0244,3.0259,3.0287,3.0291,3.0271,3.0271,3.0313,3.0318,3.0322,3.036,3.0337,3.0339,3.0341,3.0427,3.0428,3.0429,0,0,0,0,0,0,3.0166,3.0174,3.024,3.0211,3.022,3.024,3.0258,3.0261,3.0272,3.0292,3.0296,3.0279,3.0313,3.0319,3.0348,3.0362,3.034,3.0343,3.0426,3.0427,3.0428,3.0435,0,0,0,0,0,0,3.0164,3.0174,3.0185,3.0212,3.0221,3.0266,3.0258,3.0262,3.0276,3.0276,3.0301,3.0304,3.0313,3.0345,3.0351,3.0365,3.0345,3.0424,3.0426,3.0428,3.0433,3.0436,3.0438,0,0,0,0,0,3.0161,3.0184,3.0186,3.0194,3.0237,3.0267,3.0273,3.0284,3.0277,3.0289,3.0303,3.0303,3.0359,3.0348,3.0355,3.0369,3.0424,3.0426,3.0428,3.0432,3.0436,3.0438,0,0,0,0,0,0,3.0157,3.0188,3.019,3.0223,3.0243,3.0268,3.0283,3.0286,3.0307,3.0306,3.0318,3.0323,3.0352,3.0363,3.035,3.04,3.0391,3.0394,3.0392,3.0395,3.0398,3.0394,3.0347,0,0,0,0,0,3.0161,3.0184,3.0208,3.0235,3.0245,3.0263,3.0276,3.0283,3.0303,3.0311,3.0327,3.0346,3.0368,3.0382,3.0403,3.0435,3.0441,3.0449,3.0451,3.0453,3.0456,3.0475,3.0479,3.0435,3.0435,3.0435,0,0,3.0167,3.0187,3.02,3.0235,3.0251,3.0274,3.0269,3.0293,3.0311,3.0315,3.0344,3.0356,3.0378,3.0409,3.0424,3.0419,3.047,3.0455,3.0457,3.0459,3.0477,3.0482,3.0485,3.0436,3.0436,3.0436,0,0,3.0191,3.0208,3.0233,3.025,3.0275,3.0287,3.0293,3.0318,3.0327,3.0357,3.0361,3.0381,3.0418,3.0434,3.0447,3.0479,3.048,3.0485,3.0499,3.0517,3.0521,3.0524,3.0536,3.0541,3.0488,3.0488,3.0488,0,3.0196,3.0232,3.0245,3.027,3.0286,3.0292,3.0317,3.0332,3.0362,3.0372,3.0367,3.0416,3.0431,3.0467,3.0475,3.0484,3.0492,3.0483,3.0519,3.0522,3.0526,3.0538,3.0542,3.0489,3.0489,3.0489,3.0489,0,3.0237,3.0262,3.0279,3.0311,3.0328,3.0353,3.0369,3.0384,3.039,3.0402,3.0433,3.0452,3.0477,3.0486,3.0491,3.0523,3.052,3.0517,3.0508,3.053,3.0542,3.0546,3.049,3.0489,3.0489,3.0489,0,0,3.026,3.03,3.0306,3.0321,3.035,3.0369,3.0394,3.0421,3.0435,3.0455,3.0477,3.0509,3.0507,3.0522,3.0529,3.0545,3.0571,3.054,3.0541,3.0546,3.0609,3.0612,3.0617,3.0572,3.0573,3.0573,3.0607,0,3.0289,3.0336,3.0348,3.0388,3.0412,3.0418,3.044,3.046,3.0472,3.0494,3.0506,3.053,3.0525,3.0534,3.055,3.0564,3.0584,3.0562,3.0592,3.0593,3.0588,3.0623,3.0626,3.0657,3.0612,3.0613,3.0613,0,3.0328,3.0352,3.0395,3.0422,3.0433,3.0452,3.0479,3.0499,3.0522,3.053,3.0547,3.0553,3.0579,3.0568,3.0605,3.059,3.0603,3.0612,3.0613,3.0617,3.0605,3.0629,3.0667,3.0672,3.062,3.062,3.0619,0,3.0342,3.0385,3.0416,3.0429,3.0461,3.0475,3.0489,3.0511,3.0527,3.055,3.056,3.0585,3.0599,3.0617,3.063,3.0621,3.0666,3.0656,3.0673,3.0673,3.0683,3.0682,3.0725,3.0689,3.0689,3.0689,3.0689,0,3.0374,3.04,3.0424,3.0443,3.0472,3.0486,3.0515,3.0529,3.0549,3.0571,3.0577,3.0597,3.0611,3.0634,3.0643,3.0673,3.0678,3.0685,3.0688,3.0686,3.0685,3.0695,3.0693,3.0691,3.069,3.069,3.069,0,3.0395,3.0412,3.0447,3.0475,3.0483,3.0504,3.0528,3.0547,3.0559,3.0587,3.0594,3.0614,3.064,3.0655,3.0687,3.0693,3.0727,3.0728,3.072,3.0721,3.0739,3.0737,3.079,3.0798,3.0756,3.0756,3.0757,0,3.0414,3.0435,3.0466,3.0482,3.0497,3.0522,3.0539,3.0554,3.0571,3.0599,3.0615,3.0642,3.0665,3.0707,3.0723,3.0748,3.075,3.0767,3.0754,3.0752,3.0752,3.0751,3.0754,3.0769,3.077,3.077,3.077,0,3.0447,3.0455,3.048,3.0508,3.0529,3.0551,3.0573,3.0586,3.0604,3.0623,3.0651,3.0669,3.0703,3.073,3.0757,3.077,3.0774,3.0774,3.078,3.0779,3.0774,3.0778,3.0728,3.0773,3.0773,3.0773,3.0773,3.0772,3.0469,3.0488,3.0514,3.0542,3.0561,3.0582,3.0602,3.0618,3.0642,3.0672,3.0679,3.0709,3.0732,3.0768,3.0783,3.0806,3.0803,3.081,3.0812,3.0815,3.0816,3.077,3.0811,3.0811,3.081,3.081,3.081,0,3.0504,3.0521,3.0547,3.0579,3.0601,3.0603,3.0628,3.0646,3.0673,3.0695,3.0718,3.0751,3.0777,3.0797,3.0824,3.0839,3.0841,3.0845,3.0845,3.0848,3.0817,3.081,3.0843,3.0843,3.0843,3.0843,3.0843,3.0843,3.0525,3.0558,3.0569,3.0612,3.0629,3.066,3.0674,3.0693,3.0711,3.0748,3.0771,3.0784,3.0805,3.0834,3.0858,3.0863,3.0874,3.0878,3.0883,3.0854,3.085,3.0847,3.0841,3.088,3.088,3.0913,3.0913,3.0914]}]]